Location: Gleizolles
(44.4833°N, 6.7667°E)
Time: 23:54:25
(UTC+00:00)

S-56A Canister/Altair - Pass Details

Date: 03 July 2024
Orbit: 638 x 2488 km, 38.9° (Epoch: 24 July)

Event Time Altitude Azimuth Distance (km) Brightness Sun altitude
Rises 19:18:58 0° 261° (W) 3,485 11.7 -0.6°
Reaches altitude 10° 19:21:10 10° 257° (WSW) 2,714 11.0 -0.9°
Maximum altitude 19:27:37 59° 179° (S) 1,438 8.8 -1.8°
Drops below altitude 10° 19:37:27 10° 104° (ESE) 4,053 10.6 -3.2°
Sets 19:41:27 0° 101° (E) 5,333 11.3 -3.8°
